This demonstration page uses our WeatherBlox Daily Observations layout. Learn more.

Hourly Observations for August 19, 2017

Temp ( °F °C ) Dew Point ( °F °C ) Humidity (%) Winds ( mph kmh ) Pressure ( in mb ) Visibility ( mi km ) Precip ( " mm )
12:15 am 00:15 Cloudy 77 25 77 25 100 100 Calm 29.88 1012 10 16.09344 0 0
12:35 am 00:35 Cloudy 77 25 77 25 100 100 Calm 29.88 1012 10 16.09344 0 0
12:55 am 00:55 Cloudy 77 25 77 25 100 100 Calm 29.88 1012 10 16.09344 0 0
1:15 am 01:15 Cloudy 77 25 77 25 100 100 SW 3 6 29.88 1012 10 16.09344 0 0
1:35 am 01:35 Cloudy 77 25 77 25 100 100 SSW 3 6 29.88 1012 10 16.09344 0 0
1:55 am 01:55 Cloudy 77 25 77 25 100 100 WSW 3 6 29.88 1012 10 16.09344 0 0
2:15 am 02:15 Cloudy 77 25 77 25 100 100 WNW 5 7 29.88 1012 10 16.09344 0 0
2:35 am 02:35 Cloudy 77 25 73 23 89 89 WNW 3 6 29.88 1012 10 16.09344 0 0
2:55 am 02:55 Cloudy 77 25 73 23 89 89 W 5 7 29.88 1012 10 16.09344 0 0
3:15 am 03:15 Cloudy 75 24 73 23 94 94 WNW 6 9 29.91 1013 10 16.09344 0 0
3:35 am 03:35 Mostly Cloudy 75 24 72 22 89 89 NW 7 11 29.88 1012 10 16.09344 0 0
3:55 am 03:55 Mostly Cloudy 73 23 72 22 94 94 WNW 3 6 29.88 1012 10 16.09344 0 0
4:15 am 04:15 Cloudy 73 23 72 22 94 94 NW 6 9 29.88 1012 10 16.09344 0 0
4:35 am 04:35 Partly Cloudy 73 23 70 21 89 89 W 5 7 29.88 1012 10 16.09344 0 0
4:55 am 04:55 Clear 72 22 70 21 94 94 WNW 3 6 29.88 1012 10 16.09344 0 0
5:15 am 05:15 Clear 73 23 70 21 89 89 NW 5 7 29.88 1012 10 16.09344 0 0
5:35 am 05:35 Partly Cloudy 72 22 70 21 94 94 NNW 3 6 29.88 1012 10 16.09344 0 0
5:55 am 05:55 Partly Cloudy 72 22 70 21 94 94 Calm 29.88 1012 10 16.09344 0 0
6:15 am 06:15 Partly Cloudy 72 22 70 21 94 94 Calm 29.91 1013 10 16.09344 0 0
6:35 am 06:35 Partly Cloudy 70 21 70 21 100 100 Calm 29.91 1013 10 16.09344 0 0
6:55 am 06:55 Sunny 70 21 70 21 100 100 NNW 3 6 29.91 1013 10 16.09344 0 0
7:15 am 07:15 Sunny 72 22 70 21 94 94 Calm 29.91 1013 10 16.09344 0 0
7:35 am 07:35 Sunny 73 23 68 20 83 83 NNW 5 7 29.91 1013 10 16.09344 0 0
7:55 am 07:55 Sunny 75 24 70 21 83 83 Calm 29.91 1013 10 16.09344 0 0
8:15 am 08:15 Sunny 77 25 70 21 79 79 WNW 5 7 29.91 1013 10 16.09344 0 0
8:35 am 08:35 Sunny 79 26 70 21 74 74 NW 8 13 29.94 1014 10 16.09344 0 0
8:55 am 08:55 Sunny 79 26 70 21 74 74 NNW 5 7 29.94 1014 10 16.09344 0 0
9:15 am 09:15 Sunny 81 27 70 21 70 70 NW 5 7 29.94 1014 10 16.09344 0 0
9:35 am 09:35 Sunny 81 27 70 21 70 70 NNW 8 13 29.94 1014 10 16.09344 0 0
9:55 am 09:55 Sunny 81 27 70 21 70 70 NW 8 13 29.94 1014 10 16.09344 0 0
10:15 am 10:15 Sunny 81 27 70 21 70 70 NW 10 17 29.94 1014 10 16.09344 0 0
10:35 am 10:35 Sunny 82 28 70 21 66 66 WNW 10 17 29.94 1014 10 16.09344 0 0
10:55 am 10:55 Sunny 82 28 70 21 66 66 NNW 13 20 29.94 1014 10 16.09344 0 0
11:15 am 11:15 Sunny 82 28 70 21 66 66 NNW 10 17 29.94 1014 10 16.09344 0 0
11:35 am 11:35 Partly Cloudy 82 28 70 21 66 66 NW 10 17 29.94 1014 10 16.09344 0 0
11:55 am 11:55 Partly Cloudy 84 29 70 21 62 62 NNW 9 15 29.94 1014 10 16.09344 0 0
12:15 pm 12:15 Partly Cloudy 86 30 70 21 59 59 WNW 9 15 29.91 1013 10 16.09344 0 0
12:35 pm 12:35 Partly Cloudy 86 30 70 21 59 59 NNW 8 13 29.91 1013 10 16.09344 0 0
12:55 pm 12:55 Partly Cloudy 86 30 70 21 59 59 WNW 10 17 29.91 1013 10 16.09344 0 0
1:15 pm 13:15 Partly Cloudy 86 30 70 21 59 59 NW 6 9 29.91 1013 10 16.09344 0 0
1:35 pm 13:35 Partly Cloudy 88 31 72 22 59 59 W 8 13 29.91 1013 10 16.09344 0 0
1:55 pm 13:55 Sunny 86 30 70 21 59 59 W 7 11 29.91 1013 10 16.09344 0 0
2:15 pm 14:15 Partly Cloudy 88 31 70 21 55 55 WSW 7 11 29.91 1013 10 16.09344 0 0
2:35 pm 14:35 Partly Cloudy 88 31 70 21 55 55 W 3 6 29.91 1013 10 16.09344 0 0
2:55 pm 14:55 Partly Cloudy 88 31 70 21 55 55 W 8 13 29.91 1013 10 16.09344 0 0
3:15 pm 15:15 Sunny 88 31 70 21 55 55 S 5 7 29.88 1012 10 16.09344 0 0
3:35 pm 15:35 Partly Cloudy 90 32 70 21 52 52 SSW 5 7 29.88 1012 10 16.09344 0 0
3:55 pm 15:55 Partly Cloudy 90 32 70 21 52 52 Calm 29.88 1012 10 16.09344 0 0
4:15 pm 16:15 Partly Cloudy 90 32 68 20 49 49 SW 6 9 29.88 1012 10 16.09344 0 0
4:35 pm 16:35 Partly Cloudy 90 32 68 20 49 49 WSW 5 7 29.88 1012 10 16.09344 0 0
4:55 pm 16:55 Sunny 88 31 68 20 52 52 WNW 6 9 29.85 1011 10 16.09344 0 0
5:15 pm 17:15 Sunny 90 32 70 21 52 52 SSW 5 7 29.85 1011 10 16.09344 0 0
5:35 pm 17:35 Sunny 90 32 68 20 49 49 WSW 5 7 29.85 1011 10 16.09344 0 0
5:55 pm 17:55 Sunny 90 32 68 20 49 49 SW 6 9 29.88 1012 10 16.09344 0 0
6:15 pm 18:15 Partly Cloudy 88 31 70 21 55 55 SW 6 9 29.88 1012 10 16.09344 0 0
6:35 pm 18:35 Sunny 88 31 70 21 55 55 SW 6 9 29.88 1012 10 16.09344 0 0
6:55 pm 18:55 Sunny 88 31 70 21 55 55 SSW 3 6 29.88 1012 10 16.09344 0 0
7:15 pm 19:15 Sunny 86 30 72 22 62 62 WSW 3 6 29.88 1012 10 16.09344 0 0
7:35 pm 19:35 Sunny 86 30 72 22 62 62 SW 3 6 29.88 1012 10 16.09344 0 0
7:55 pm 19:55 Sunny 82 28 72 22 70 70 SW 3 6 29.91 1013 10 16.09344 0 0
8:15 pm 20:15 Clear 82 28 72 22 70 70 SW 3 6 29.91 1013 10 16.09344 0 0
8:35 pm 20:35 Clear with Nearby Thunderstorms 81 27 72 22 74 74 SW 3 6 29.94 1014 10 16.09344 0 0
8:55 pm 20:55 Clear 79 26 73 23 84 84 Calm 29.94 1014 10 16.09344 0 0
9:15 pm 21:15 Partly Cloudy 79 26 63 17 58 58 NNE 14 22 29.97 1015 10 16.09344 0 0
9:35 pm 21:35 Mostly Cloudy 77 25 63 17 61 61 N 15 24 30 1016 10 16.09344 0 0
9:55 pm 21:55 Mostly Cloudy with Light Thunderstorms 72 22 66 19 83 83 WSW 6 9 30 1016 10 16.09344 0.01 0.254
10:15 pm 22:15 Partly Cloudy 70 21 66 19 88 88 Calm 30 1016 10 16.09344 0 0
10:35 pm 22:35 Clear 70 21 68 20 94 94 Calm 30 1016 10 16.09344 0 0
10:55 pm 22:55 Clear 70 21 68 20 94 94 Calm 30 1016 10 16.09344 0 0
11:15 pm 23:15 Clear 68 20 68 20 100 100 Calm 30 1016 10 16.09344 0 0
11:35 pm 23:35 Clear 68 20 68 20 100 100 NW 3 6 30 1016 10 16.09344 0 0
11:55 pm 23:55 Clear 68 20 68 20 100 100 Calm 30 1016 10 16.09344 0 0

Powered by AerisWeather